Location: Brantley
(31.5822°N, 86.2569°W)
Time: 04:00:33
(UTC+00:00)

Vanguard 2 - Pass Details

Date: 22 February 2026
Orbit: 553 x 2896 km, 32.9° (Epoch: 7 March)

Event Time Altitude Azimuth Distance (km) Brightness Sun altitude
Rises 06:48:32 0° 210° (SSW) 6,174 - -65.7°
Reaches altitude 10° 06:54:10 10° 199° (SSW) 4,787 - -65.0°
Maximum altitude 07:03:20 24° 153° (SSE) 3,052 - -63.8°
Drops below altitude 10° 07:09:55 10° 104° (ESE) 3,338 - -62.9°
Sets 07:12:58 0° 89° (E) 3,984 - -62.5°
